TimeMDT,TemperatureF,Dew PointF,Humidity,Sea Level PressureIn,VisibilityMPH,Wind Direction,Wind SpeedMPH,Gust SpeedMPH,PrecipitationIn,Events,Conditions,WindDirDegrees,DateUTC
12:53 AM,39.0,27.0,62,30.04,10.0,NW,15.0,-,N/A,,Overcast,320,2012-10-09 06:53:00
2:53 AM,32.0,28.0,85,30.08,10.0,NW,10.4,-,N/A,,Clear,310,2012-10-09 08:53:00
3:53 AM,30.0,28.0,92,30.09,10.0,NW,9.2,-,N/A,,Clear,320,2012-10-09 09:53:00
4:53 AM,27.0,24.1,89,30.11,10.0,WNW,4.6,-,N/A,,Clear,290,2012-10-09 10:53:00
5:53 AM,26.1,23.0,88,30.13,10.0,NNE,4.6,-,N/A,,Clear,20,2012-10-09 11:53:00
6:53 AM,27.0,25.0,92,30.14,10.0,West,5.8,-,N/A,,Clear,270,2012-10-09 12:53:00
7:53 AM,25.0,24.1,96,30.16,10.0,West,4.6,-,N/A,,Clear,280,2012-10-09 13:53:00
8:53 AM,30.9,28.0,89,30.17,10.0,NW,4.6,-,N/A,,Partly Cloudy,310,2012-10-09 14:53:00
9:53 AM,36.0,28.9,76,30.17,10.0,WNW,5.8,-,N/A,,Clear,300,2012-10-09 15:53:00
10:53 AM,41.0,26.1,55,30.16,10.0,NW,12.7,-,N/A,,Clear,320,2012-10-09 16:53:00
11:53 AM,44.1,21.9,42,30.15,10.0,NW,12.7,-,N/A,,Clear,320,2012-10-09 17:53:00
12:53 PM,46.9,19.0,33,30.14,10.0,NNW,17.3,21.9,N/A,,Clear,330,2012-10-09 18:53:00
1:53 PM,46.9,19.9,34,30.12,10.0,NW,12.7,20.7,N/A,,Clear,310,2012-10-09 19:53:00
2:53 PM,48.0,21.0,34,30.12,10.0,WNW,15.0,23.0,N/A,,Clear,300,2012-10-09 20:53:00
3:53 PM,50.0,21.0,32,30.11,10.0,WNW,18.4,-,N/A,,Partly Cloudy,300,2012-10-09 21:53:00
4:53 PM,48.0,21.9,36,30.10,10.0,WNW,13.8,-,N/A,,Mostly Cloudy,300,2012-10-09 22:53:00
5:53 PM,46.9,21.9,37,30.10,10.0,NW,4.6,-,N/A,,Overcast,320,2012-10-09 23:53:00
6:53 PM,45.0,21.9,40,30.11,10.0,Calm,Calm,-,N/A,,Overcast,0,2012-10-10 00:53:00
7:53 PM,46.4,24.8,43,30.03,10.0,Calm,Calm,-,N/A,,Overcast,0,2012-10-10 01:53:00
8:53 PM,43.0,26.1,51,30.09,10.0,South,4.6,-,N/A,,Overcast,170,2012-10-10 02:53:00
9:53 PM,43.0,27.0,53,30.08,10.0,ESE,4.6,-,N/A,,Overcast,110,2012-10-10 03:53:00
10:53 PM,42.1,28.0,58,30.06,10.0,ESE,5.8,-,N/A,,Overcast,110,2012-10-10 04:53:00
11:53 PM,39.9,28.0,63,30.03,10.0,ESE,8.1,-,N/A,,Overcast,120,2012-10-10 05:53:00